COSMOS 1275 DEB, 42147

Orbit data source: Space-Track

COSMOS 1275 DEB, 42147 is space debris in LEO originally from a launch on Thu, 04 Jun 1981 UTC launched from the Plesetsk Missile And Space Complex (PKMTR). Debris objects in space refer to the collection of defunct objects orbiting the Earth. Examples of debris include non-operational satellites, rocket bodies, and fragments generated from explosions, collisions, or faulty payload assembly.

Loading next visibility...
Identifier
42147, 1981-053RK
Orbit
LEO
Country
Flag of CISCIS
Related business
Manufacturer
Unknown
Mission
Spacecraft
Bus & Motor
Unknown
Mass
Unknown
Launch date (UTC)
1981-06-04 (44 years ago)
Launch vehicle
Unknown
Launch site
Plesetsk Missile And Space Complex (PKMTR)
Object type
Payload
Rocket body
Debris
Shape & HBR
Unknown
Radar Cross Section
Small (<0.1 m²)

Expand to show TLE details & history
Last TLE update: 2 days ago

TLE from 2 days ago
0 COSMOS 1275 DEB
1 42147U 81053RK  25259.32298985  .00001803  00000-0  80186-3 0  9992
2 42147  83.0617 110.0753 0017961 175.8859 184.2475 14.22369397610069
Epoch: 2025-09-16T07:45Z
TLE epoch observation values (Epoch: 2025-09-16T07:45:06.323Z)
Latitude
0.00001°
Longitude
-1.71599°
Altitude
833.211 km
Speed
7.43 km/s
True Right ascension
07h 20m 18s
True Declination
0° 00' 00"
Sunlit
Object was in daylight at epoch
Visualization orbit readout
Latitude
Unknown
Longitude
Unknown
Altitude
Unknown
Speed
Unknown
Apparent Right ascension
Unknown
Apparent Declination
Unknown
Sunlit
N/A
Visualization observer readout
Local Sidereal Time
21:34:44
Azimuth
Unknown
Elevation
Unknown
Doppler factor
Unknown
Orbital elements
Apogee altitude
827.348 km
Perigee altitude
801.511 km
Semi-major axis
7,192.567 km
Eccentricity
0.0018
Inclination
83.0617°
RAAN
110.0753°
Arg. of periapsis
175.8859°
True anomaly
184.23229°
Mean anomaly
184.2475°
Eccentric anomaly
184.23989°
Mean motion
3.55809 °/min
Orbital period
101.18 mins
BSTAR
0.00080186
Loading maneuver chart data...
Computing Atmospheric mass density...
Loading historical data...
Loading historical data...
Loading historical data...
Loading historical data...
Loading historical data...
Loading historical data...
Loading historical data...

Documentation

Showing up to 5 results
|